FW3054 Weather Reports


time (UTC)temp
C
wind
direction
speed
KPH
gust
KPH
rain 1hr
cm
rain 24hr
cm
rain mn
cm
humidity
%
barometer
mb
20260905193537 25 0.0 0.0 0.00 0.00 0.00 75 1016.1
20260905192556 25 0.0 0.0 0.00 0.00 0.00 75 1016.2
20260905191536 25 0.0 0.0 0.00 0.00 0.00 75 1016.3
20260905190516 25 0.0 3.2 0.00 0.00 0.00 73 1016.1
20260905185516 25 0.0 0.0 0.00 0.00 0.00 78 1016.6
20260905184516 25 0.0 0.0 0.00 0.00 0.00 76 1016.4
20260905183516 25 0.0 0.0 0.00 0.00 0.00 74 1016.9
20260905182516 25 0.0 0.0 0.00 0.00 0.00 72 1016.7
20260905181516 25 0.0 3.2 0.00 0.00 0.00 71 1016.5
20260905180536 25 45 1.6 6.4 0.00 0.00 0.00 71 1017.3
20260905175516 25 23 4.8 9.7 0.00 0.00 0.00 71 1017.2
20260905174516 26 338 1.6 8.0 0.00 0.00 0.00 69 1016.5
20260905173516 26 0.0 1.6 0.00 0.00 0.00 67 1016.5
20260905172536 28 0.0 3.2 0.00 0.00 0.00 66 1017.1
20260905171556 28 0.0 1.6 0.00 0.00 0.00 65 1017.7
20260905170517 30 0.0 1.6 0.00 0.00 0.00 67 1017.6
20260905165516 30 0.0 1.6 0.00 0.00 0.00 65 1017.4
20260905164516 30 23 1.6 4.8 0.00 0.00 0.00 62 1017.4
20260905163516 31 23 1.6 6.4 0.00 0.00 0.00 61 1017.4
20260905162516 30 23 1.6 8.0 0.00 0.00 0.00 63 1017.8
20260905161516 30 23 3.2 8.0 0.00 0.00 0.00 64 1017.7
20260905160516 30 23 1.6 6.4 0.00 0.00 0.00 64 1017.9
20260905155516 30 23 3.2 9.7 0.00 0.00 0.00 64 1018.1
20260905154516 29 23 3.2 8.0 0.00 0.00 0.00 66 1018.1
20260905153516 28 45 1.6 6.4 0.00 0.00 0.00 70 1017.9
20260905152516 28 0.0 0.0 0.00 0.00 0.00 72 1017.8
20260905151516 28 0.0 0.0 0.00 0.00 0.00 74 1017.9
20260905150516 27 0.0 0.0 0.00 0.00 0.00 76 1017.8
20260905145516 27 0.0 0.0 0.00 0.00 0.00 79 1017.8
20260905144556 27 0.0 0.0 0.00 0.00 0.00 83 1017.8
20260905143536 26 0.0 0.0 0.00 0.00 0.00 81 1017.8
20260905142516 26 0.0 1.6 0.00 0.00 0.00 82 1018.0
20260905141516 25 0.0 0.0 0.00 0.00 0.00 83 1018.0
20260905140516 25 0.0 1.6 0.00 0.00 0.00 85 1017.9
20260905135516 24 0.0 0.0 0.00 0.00 0.00 86 1017.9
20260905134516 23 0.0 0.0 0.00 0.00 0.00 87 1018.0
20260905133516 23 0.0 1.6 0.00 0.00 0.00 88 1018.1
20260905132516 22 0.0 1.6 0.00 0.00 0.00 89 1018.2
20260905131516 22 0.0 0.0 0.00 0.00 0.00 89 1018.3
20260905130516 22 0.0 0.0 0.00 0.00 0.00 89 1018.3
20260905125516 22 0.0 1.6 0.00 0.00 0.00 89 1018.3
20260905124515 21 0.0 0.0 0.00 0.00 0.00 89 1018.3
20260905123516 21 0.0 0.0 0.00 0.00 0.00 89 1018.3
20260905122536 21 0.0 0.0 0.00 0.00 0.00 89 1018.3
20260905121516 21 0.0 0.0 0.00 0.00 0.00 89 1017.9
20260905120516 21 0.0 0.0 0.00 0.00 0.00 89 1018.0
20260905115516 21 0.0 1.6 0.00 0.00 0.00 89 1017.9
20260905114516 21 0.0 0.0 0.00 0.00 0.00 89 1017.8
20260905113516 21 0.0 0.0 0.00 0.00 0.00 89 1017.8
20260905112516 21 0.0 0.0 0.00 0.00 0.00 89 1017.8
20260905111515 21 0.0 0.0 0.00 0.00 0.00 89 1017.5
20260905110516 20 0.0 0.0 0.00 0.00 0.00 89 1017.3
20260905105616 21 0.0 0.0 0.00 0.00 0.00 89 1017.3
20260905104516 21 0.0 1.6 0.00 0.00 0.00 89 1017.3
20260905103515 21 0.0 0.0 0.00 0.00 0.00 89 1017.1
20260905102516 21 0.0 0.0 0.00 0.00 0.00 89 1017.3
20260905101516 21 0.0 0.0 0.00 0.00 0.00 89 1017.3
20260905100516 21 0.0 0.0 0.00 0.00 0.00 89 1017.0
20260905095515 21 0.0 0.0 0.00 0.00 0.00 89 1017.3
20260905094515 21 0.0 0.0 0.00 0.00 0.00 89 1017.2
20260905093515 21 0.0 0.0 0.00 0.00 0.00 88 1017.2
20260905092515 21 0.0 0.0 0.00 0.00 0.00 88 1017.4
20260905091515 21 0.0 1.6 0.00 0.00 0.00 88 1017.5
20260905090515 21 0.0 0.0 0.00 0.00 0.00 88 1017.4
20260905085515 21 0.0 1.6 0.00 0.00 0.00 89 1017.6
20260905084515 21 0.0 1.6 0.00 0.00 0.00 89 1017.7
20260905083516 21 0.0 0.0 0.00 0.00 0.00 88 1017.6
20260905082515 21 0.0 0.0 0.00 0.00 0.00 88 1017.7
20260905081515 21 0.0 0.0 0.00 0.00 0.00 88 1017.7
20260905080516 21 0.0 0.0 0.00 0.00 0.00 88 1017.9
20260905075557 21 0.0 0.0 0.00 0.00 0.00 88 1018.0
20260905074515 21 0.0 0.0 0.00 0.00 0.00 88 1018.0
20260905073515 21 0.0 1.6 0.00 0.00 0.00 88 1018.1
20260905072517 21 0.0 1.6 0.00 0.00 0.00 88 1018.1
20260905071537 21 0.0 0.0 0.00 0.00 0.00 88 1018.3
20260905070517 21 0.0 0.0 0.00 0.00 0.00 89 1018.4
20260905065517 21 0.0 0.0 0.00 0.00 0.00 89 1018.3
20260905064517 21 0.0 0.0 0.00 0.00 0.00 89 1018.4
20260905063517 21 0.0 1.6 0.00 0.00 0.00 89 1018.5
20260905062537 22 0.0 0.0 0.00 0.00 0.00 89 1018.6
20260905061517 22 0.0 0.0 0.00 0.00 0.00 89 1018.6
20260905060537 22 0.0 0.0 0.00 0.00 0.00 89 1018.8
20260905055517 22 0.0 0.0 0.00 0.00 0.00 89 1018.9
20260905054517 22 0.0 0.0 0.00 0.00 0.00 89 1018.9
20260905053517 22 0.0 0.0 0.00 0.00 0.00 89 1018.8
20260905052517 22 0.0 0.0 0.00 0.00 0.00 89 1018.9
20260905051557 22 0.0 0.0 0.00 0.00 0.00 89 1018.9
20260905050517 22 0.0 0.0 0.00 0.00 0.00 89 1018.7
20260905045517 22 0.0 0.0 0.00 0.00 0.00 89 1018.7
20260905044517 22 0.0 0.0 0.00 0.00 0.00 89 1018.8
20260905043517 22 0.0 0.0 0.00 0.00 0.00 89 1018.7
20260905042517 22 0.0 0.0 0.00 0.00 0.00 89 1018.3
20260905041517 23 0.0 0.0 0.00 0.00 0.00 88 1018.2
20260905040517 23 0.0 0.0 0.00 0.00 0.00 88 1018.3
20260905035517 23 0.0 0.0 0.00 0.00 0.00 88 1018.1
20260905034517 23 0.0 0.0 0.00 0.00 0.00 87 1018.1
20260905033517 23 0.0 0.0 0.00 0.00 0.00 87 1018.6
20260905032517 23 0.0 0.0 0.00 0.00 0.00 86 1018.1
20260905031537 23 0.0 0.0 0.00 0.00 0.00 86 1018.2
20260905030517 24 0.0 0.0 0.00 0.00 0.00 86 1018.3
20260905025537 24 0.0 0.0 0.00 0.00 0.00 86 1018.2
20260905024517 24 0.0 0.0 0.00 0.00 0.00 86 1018.2
20260905023517 25 0.0 0.0 0.00 0.00 0.00 85 1018.4
20260905022517 25 0.0 0.0 0.00 0.00 0.00 84 1018.4
20260905021517 25 0.0 0.0 0.00 0.00 0.00 83 1018.3
20260905020517 25 0.0 0.0 0.00 0.00 0.00 83 1018.6
20260905015517 25 0.0 1.6 0.00 0.00 0.00 82 1018.6
20260905014517 25 0.0 0.0 0.00 0.00 0.00 82 1018.7
20260905013517 26 0.0 0.0 0.00 0.00 0.00 81 1018.7
20260905012517 26 0.0 0.0 0.00 0.00 0.00 80 1018.4
20260905011517 26 0.0 1.6 0.00 0.00 0.00 79 1018.4
20260905010517 26 0.0 0.0 0.00 0.00 0.00 79 1018.6
20260905005516 26 0.0 0.0 0.00 0.00 0.00 78 1018.3
20260905004537 26 0.0 0.0 0.00 0.00 0.00 77 1018.1
20260905003516 26 0.0 0.0 0.00 0.00 0.00 77 1018.0
20260905002517 27 0.0 0.0 0.00 0.00 0.00 77 1017.8
20260905001517 27 0.0 0.0 0.00 0.00 0.00 74 1018.1
20260905000517 28 0.0 0.0 0.00 0.00 0.00 73 1017.9
20260904235516 28 0.0 0.0 0.00 0.00 0.00 71 1017.9
20260904234516 28 0.0 0.0 0.00 0.00 0.00 71 1017.9
20260904233517 28 0.0 0.0 0.00 0.00 0.00 69 1017.9
20260904232517 29 0.0 0.0 0.00 0.00 0.00 70 1017.8
20260904231517 29 0.0 0.0 0.00 0.00 0.00 69 1017.7
20260904230517 29 0.0 0.0 0.00 0.00 0.00 69 1017.7
20260904225516 30 0.0 0.0 0.00 0.00 0.00 67 1017.7
20260904224516 30 0.0 0.0 0.00 0.00 0.00 67 1017.6
20260904223537 30 0.0 0.0 0.00 0.00 0.00 66 1017.7
20260904222517 31 0.0 1.6 0.00 0.00 0.00 65 1017.9
20260904221516 31 0.0 1.6 0.00 0.00 0.00 62 1017.9
20260904220516 31 0.0 1.6 0.00 0.00 0.00 60 1017.9
20260904215557 31 0.0 1.6 0.00 0.00 0.00 60 1018.0
20260904214516 31 0.0 1.6 0.00 0.00 0.00 60 1018.2
20260904213517 32 0.0 1.6 0.00 0.00 0.00 59 1018.0
20260904212516 32 0.0 1.6 0.00 0.00 0.00 59 1018.1
20260904211516 32 0.0 1.6 0.00 0.00 0.00 59 1018.0
20260904210516 32 0.0 1.6 0.00 0.00 0.00 58 1018.1
20260904205516 33 0.0 1.6 0.00 0.00 0.00 59 1018.2
20260904204516 33 0.0 1.6 0.00 0.00 0.00 56 1018.3
20260904203536 33 0.0 1.6 0.00 0.00 0.00 55 1018.2
20260904202536 32 0.0 3.2 0.00 0.00 0.00 56 1018.3
20260904201516 32 135 1.6 4.8 0.00 0.00 0.00 61 1018.3
20260904200516 31 135 1.6 3.2 0.00 0.00 0.00 60 1018.4
20260904195556 32 135 1.6 3.2 0.00 0.00 0.00 59 1018.6
20260904194516 32 135 1.6 3.2 0.00 0.00 0.00 63 1019.0